DW5462 Weather Reports


time (UTC)temp
C
wind
direction
speed
KPH
gust
KPH
rain 1hr
cm
rain 24hr
cm
rain mn
cm
humidity
%
barometer
mb
20260505151542 12 266 0.0 3.2 0.05 0.18 0.18 91 1007.6
20260505124509 19 269 0.0 8.0 0.00 0.00 0.00 66 1006.9
20260505123007 19 269 0.0 8.0 0.00 0.00 0.00 63 1006.9
20260505121509 19 273 0.0 8.0 0.00 0.00 0.00 61 1006.8
20260505120005 20 264 0.0 9.7 0.00 0.00 0.00 59 1006.8
20260505114504 20 319 0.0 6.4 0.00 0.00 0.00 54 1006.9
20260505113003 20 257 0.0 8.0 0.00 0.00 0.00 56 1006.9
20260505111502 20 344 0.0 3.2 0.00 0.00 0.00 54 1007.0
20260505101544 20 290 0.0 8.0 0.00 0.00 0.00 54 1007.5
20260505100041 20 276 0.0 6.4 0.00 0.00 0.00 56 1007.7
20260505094539 20 5 0.0 0.0 0.00 0.00 0.00 60 1007.8
20260505093037 19 304 0.0 0.0 0.00 0.00 0.00 60 1007.9
20260505091535 18 304 0.0 3.2 0.00 0.00 0.00 63 1008.1
20260505090016 18 304 0.0 0.0 0.00 0.00 0.00 65 1008.3
20260505084518 18 304 0.0 1.6 0.00 0.00 0.00 64 1008.3
20260505083015 18 304 0.0 0.0 0.00 0.00 0.00 64 1008.3
20260505081516 18 304 0.0 3.2 0.00 0.00 0.00 65 1008.4
20260505080025 17 300 0.0 4.8 0.00 0.00 0.00 69 1008.4
20260505074504 16 292 0.0 0.0 0.00 0.00 0.00 74 1008.6
20260505073107 15 292 0.0 0.0 0.00 0.00 0.00 78 1008.7
20260505071555 15 292 0.0 4.8 0.00 0.00 0.00 83 1008.8
20260505070048 13 292 0.0 0.0 0.00 0.00 0.00 88 1008.9
20260505064554 12 292 0.0 0.0 0.00 0.00 0.00 91 1008.9
20260505063038 12 292 0.0 0.0 0.00 0.00 0.00 92 1009.0
20260505061540 11 292 0.0 0.0 0.00 0.00 0.00 92 1009.1
20260505060033 11 292 0.0 0.0 0.00 0.00 0.00 92 1009.2
20260505054531 10 292 0.0 0.0 0.00 0.00 0.00 92 1009.3
20260505053030 10 292 0.0 0.0 0.00 0.00 0.00 92 1009.4
20260505051529 9 292 0.0 0.0 0.00 0.00 0.00 91 1009.3
20260505041504 10 292 0.0 0.0 0.00 0.00 0.00 87 1009.4
20260505040002 10 292 0.0 0.0 0.00 0.00 0.00 87 1009.5
20260505034604 10 292 0.0 0.0 0.00 0.00 0.00 87 1009.5
20260505033057 10 292 0.0 0.0 0.00 0.00 0.00 87 1009.7
20260505031602 11 292 0.0 0.0 0.00 0.00 0.00 87 1009.8
20260505030051 11 292 0.0 0.0 0.00 0.00 0.00 87 1010.0
20260505024541 11 292 0.0 0.0 0.00 0.00 0.00 87 1010.2
20260505023030 11 292 0.0 0.0 0.00 0.00 0.00 87 1010.4
20260505021519 11 292 0.0 0.0 0.00 0.00 0.00 87 1010.5
20260505020015 11 292 0.0 0.0 0.00 0.00 0.00 86 1010.7
20260505014513 11 292 0.0 0.0 0.00 0.00 0.00 86 1010.9
20260505013020 11 292 0.0 0.0 0.00 0.00 0.00 86 1010.9
20260505011512 11 292 0.0 0.0 0.00 0.00 0.00 85 1011.1
20260505010010 12 292 0.0 0.0 0.00 0.00 0.00 85 1011.0
20260505004510 12 292 0.0 0.0 0.00 0.00 0.00 84 1011.0
20260505003007 12 292 0.0 0.0 0.00 0.00 0.00 83 1011.1
20260505001553 12 292 0.0 0.0 0.00 0.00 0.00 83 1011.1
20260505000054 12 292 0.0 0.0 0.00 0.00 0.00 82 1011.3
20260504234533 12 292 0.0 0.0 0.00 0.00 0.00 81 1011.5
20260504233032 12 292 0.0 0.0 0.00 0.00 0.00 81 1011.5
20260504231541 12 292 0.0 0.0 0.00 0.00 0.00 81 1011.7
20260504230028 13 292 0.0 0.0 0.00 0.00 0.00 80 1011.8
20260504224528 13 292 0.0 0.0 0.00 0.00 0.00 80 1011.9
20260504223025 13 292 0.0 0.0 0.00 0.00 0.00 79 1011.9
20260504221522 13 292 0.0 0.0 0.00 0.00 0.00 78 1012.0
20260504220021 13 292 0.0 0.0 0.00 0.00 0.00 77 1012.1
20260504214502 14 292 0.0 0.0 0.00 0.00 0.00 76 1012.3
20260504213007 15 292 0.0 0.0 0.00 0.00 0.00 74 1012.5
20260504211552 15 292 0.0 0.0 0.00 0.00 0.00 73 1012.6
20260504210105 15 292 0.0 0.0 0.00 0.00 0.00 70 1012.8
20260504204559 15 292 0.0 0.0 0.00 0.00 0.00 65 1012.8
20260504203050 16 292 0.0 0.0 0.00 0.00 0.00 64 1012.7
20260504201550 16 292 0.0 0.0 0.00 0.00 0.00 63 1012.7
20260504200047 16 292 0.0 0.0 0.00 0.00 0.00 62 1012.5
20260504194602 16 292 0.0 0.0 0.00 0.00 0.00 61 1012.5
20260504193046 16 293 0.0 6.4 0.00 0.00 0.00 61 1012.4
20260504191542 16 267 0.0 8.0 0.00 0.00 0.00 59 1012.3
20260504190035 17 262 0.0 6.4 0.00 0.00 0.00 57 1012.3
20260504184538 17 260 0.0 6.4 0.00 0.00 0.00 57 1012.2
20260504183032 17 355 0.0 3.2 0.00 0.00 0.00 58 1012.2
20260504181537 17 13 0.0 0.0 0.00 0.00 0.00 57 1012.1
20260504180045 18 17 0.0 0.0 0.00 0.00 0.00 57 1012.0
20260504174530 18 17 0.0 0.0 0.00 0.00 0.00 57 1011.8
20260504173033 18 17 0.0 0.0 0.00 0.00 0.00 55 1011.8
20260504171516 18 17 0.0 0.0 0.00 0.00 0.00 54 1011.7